Regional Weather Roundup
Issued by NWS

Home | Current Version | Previous Version | Graphics & Text | Print | Product List | Glossary On
Versions: 1 2 3 4 5 6 7 8 9 10 11 12 13 14 15 16 17 18 19 20 21 22 23 24 25 26 27 28 29 30 31 32 33 34 35 36 37 38 39 40 41 42 43 44 45 46 47 48 49 50
000
ASUS45 KCYS 282110
RWRWY

WYOMING REGIONAL WEATHER ROUNDUP
NATIONAL WEATHER SERVICE CHEYENNE WY
200 PM MST FRI NOV 28 2014

NOTE:  "FAIR" INDICATES FEW OR NO CLOUDS BELOW 12,000 FEET
WITH NO SIGNIFICANT WEATHER AND/OR OBSTRUCTIONS TO VISIBILITY.

WYZ001-282200-
YELLOWSTONE NATIONAL PARK

CITY           SKY/WX    TMP DP  RH WIND       PRES   REMARKS
LK YELLOWSTONE   N/A     38  16  40 MISG      29.82F
W YELLOWSTONE  NOT AVBL

$$
WYZ002>013-054>058-071-098>099-282200-
NORTHERN WYOMING

CITY           SKY/WX    TMP DP  RH WIND       PRES   REMARKS
JACKSON        CLOUDY    45  21  39 S16       29.84F
CODY           PTSUNNY   54  19  26 SW31G52   29.61F
GREYBULL       PTSUNNY   41  30  65 SE5       29.69F
WORLAND        PTSUNNY   32  25  75 VRB3      29.69F
SHERIDAN       PTSUNNY   61  19  19 SW25G37   29.57S
BUFFALO        PTSUNNY   60  20  21 W25G38    29.61F
GILLETTE       PTSUNNY   52  24  33 SW14      29.61F
HULETT           N/A    N/A N/A N/A MISG        N/A
NEWCASTLE      FAIR      54  23  30 CALM      29.67F

$$
WYZ014>020-022>026-101>103-282200-
CENTRAL WYOMING

CITY           SKY/WX    TMP DP  RH WIND       PRES   REMARKS
BIG PINEY      MOSUNNY   54  12  18 W17G29    29.90F
PINEDALE       MOCLDY    43  25  49 E8        29.92F
DUBOIS         FAIR      45  14  29 NW13G18   29.82F
LANDER         PTSUNNY   62  12  14 W13G22    29.76F
RIVERTON       PTSUNNY   53  16  23 W22G31    29.76F
CASPER         PTSUNNY   56  19  23 SW17      29.74F
DOUGLAS        MOSUNNY   60  16  18 W36G45    29.71F

$$
WYZ021-027>030-104>119-282200-
SOUTHERN WYOMING

CITY           SKY/WX    TMP DP  RH WIND       PRES   REMARKS
EVANSTON       MOSUNNY   51  19  28 SW20      29.96F
FORT BRIDGER   FAIR      57  12  16 W26G35    29.98F
ROCK SPRINGS   PTSUNNY   54  14  20 SW16      29.94F
DIXON          FAIR      56  19  23 SW23G30   30.00F
RAWLINS        CLOUDY    51  15  23 W28G41    29.90F
SARATOGA       FAIR      52  14  22 SW20G26   29.96F
LARAMIE        PTSUNNY   54  11  18 SW15      29.92F
CHEYENNE       PTSUNNY   59  10  14 W20G29    29.83F
TORRINGTON     CLOUDY    65  16  15 W18G30    29.70F
PINE BLUFFS    FAIR      63  12  14 W15G23    29.81F

$$



USA.gov is the U.S. government's official web portal to all federal, state and local government web resources and services.